TimeEDT,TemperatureF,Dew PointF,Humidity,Sea Level PressureIn,VisibilityMPH,Wind Direction,Wind SpeedMPH,Gust SpeedMPH,PrecipitationIn,Events,Conditions,WindDirDegrees,DateUTC
12:10 AM,55.4,53.6,94,30.03,5.0,SE,3.5,-,N/A,,Mostly Cloudy,140,2013-04-30 04:10:00
12:31 AM,55.4,53.6,94,30.03,6.0,Calm,Calm,-,N/A,,Overcast,0,2013-04-30 04:31:00
12:42 AM,55.4,53.6,94,30.03,6.0,Calm,Calm,-,N/A,,Overcast,0,2013-04-30 04:42:00
12:53 AM,55.9,52.0,87,30.04,6.0,Variable,4.6,-,N/A,,Overcast,0,2013-04-30 04:53:00
1:53 AM,55.9,52.0,87,30.04,6.0,Variable,3.5,-,N/A,,Overcast,0,2013-04-30 05:53:00
2:53 AM,55.0,52.0,89,30.04,6.0,Calm,Calm,-,N/A,,Overcast,0,2013-04-30 06:53:00
3:13 AM,53.6,51.8,94,30.05,6.0,SE,3.5,-,N/A,,Scattered Clouds,140,2013-04-30 07:13:00
3:53 AM,53.1,51.1,93,30.06,4.0,Calm,Calm,-,N/A,,Partly Cloudy,0,2013-04-30 07:53:00
4:53 AM,53.1,51.1,93,30.07,5.0,Calm,Calm,-,N/A,,Clear,0,2013-04-30 08:53:00
5:12 AM,53.6,50.0,88,30.07,5.0,Calm,Calm,-,N/A,,Partly Cloudy,0,2013-04-30 09:12:00
5:53 AM,53.1,50.0,89,30.09,5.0,Calm,Calm,-,N/A,,Scattered Clouds,0,2013-04-30 09:53:00
6:02 AM,53.6,51.8,94,30.09,5.0,Calm,Calm,-,N/A,,Mostly Cloudy,0,2013-04-30 10:02:00
6:53 AM,54.0,51.1,90,30.09,5.0,Variable,3.5,-,N/A,,Overcast,0,2013-04-30 10:53:00
7:09 AM,53.6,51.8,94,30.10,6.0,SE,4.6,-,N/A,,Overcast,130,2013-04-30 11:09:00
7:53 AM,55.0,51.1,86,30.12,10.0,Variable,5.8,-,N/A,,Overcast,0,2013-04-30 11:53:00
8:53 AM,57.0,51.1,81,30.13,10.0,Variable,4.6,-,N/A,,Overcast,0,2013-04-30 12:53:00
9:53 AM,57.9,50.0,75,30.13,10.0,Variable,5.8,-,N/A,,Overcast,0,2013-04-30 13:53:00
10:23 AM,60.8,51.8,72,30.13,10.0,Variable,6.9,-,N/A,,Scattered Clouds,0,2013-04-30 14:23:00
10:53 AM,62.1,51.1,67,30.13,10.0,Variable,4.6,-,N/A,,Partly Cloudy,0,2013-04-30 14:53:00
11:15 AM,62.6,51.8,68,30.13,10.0,Variable,6.9,-,N/A,,Mostly Cloudy,0,2013-04-30 15:15:00
11:53 AM,64.9,51.1,61,30.13,10.0,Variable,5.8,-,N/A,,Scattered Clouds,0,2013-04-30 15:53:00
12:08 PM,66.2,51.8,60,30.14,10.0,South,8.1,-,N/A,,Mostly Cloudy,190,2013-04-30 16:08:00
12:17 PM,66.2,51.8,60,30.15,10.0,Variable,5.8,16.1,N/A,,Mostly Cloudy,0,2013-04-30 16:17:00
12:53 PM,66.9,51.1,57,30.13,4.0,South,8.1,-,N/A,,Haze,170,2013-04-30 16:53:00
1:53 PM,68.0,51.1,55,30.15,10.0,Variable,4.6,-,0.01,,Mostly Cloudy,0,2013-04-30 17:53:00
2:53 PM,71.1,50.0,47,30.13,10.0,SSW,10.4,-,N/A,,Scattered Clouds,210,2013-04-30 18:53:00
3:53 PM,71.1,48.9,45,30.13,10.0,Variable,5.8,-,N/A,,Clear,0,2013-04-30 19:53:00
4:53 PM,71.1,48.9,45,30.11,10.0,SE,8.1,-,N/A,,Clear,130,2013-04-30 20:53:00
5:53 PM,71.1,48.9,45,30.09,10.0,SE,5.8,-,N/A,,Clear,130,2013-04-30 21:53:00
6:53 PM,70.0,48.9,47,30.09,10.0,Variable,5.8,-,N/A,,Clear,0,2013-04-30 22:53:00
7:53 PM,66.9,48.9,52,30.11,10.0,Variable,4.6,-,N/A,,Clear,0,2013-04-30 23:53:00
8:53 PM,63.0,48.9,60,30.13,10.0,Variable,6.9,-,N/A,,Clear,0,2013-05-01 00:53:00
9:53 PM,61.0,48.9,64,30.17,10.0,Variable,5.8,-,N/A,,Clear,0,2013-05-01 01:53:00
10:53 PM,59.0,48.9,69,30.19,10.0,Variable,6.9,-,N/A,,Clear,0,2013-05-01 02:53:00
11:53 PM,57.9,48.9,72,30.19,10.0,Variable,4.6,-,N/A,,Clear,0,2013-05-01 03:53:00